Location: Shepherdstown, WV
(39.4326°N, 77.8042°W)
Time: 23:44:40
(UTC-04:00)

Vanguard 2 Rocket - Visible Passes

Search period start: 31 July 2021 00:00
Search period end: 10 August 2021 00:00
Orbit: 555 x 3325 km, 32.9° (Epoch: 31 July)

Date Brightness Start Highest point End Pass type
(mag) Time Alt. Az. Time Alt. Az. Time Alt. Az.
04 Aug 9.0 05:16:01 10° S 05:17:18 11° SSE 05:18:29 10° SSE visible
06 Aug 8.5 05:26:38 10° SSW 05:31:18 19° SSE 05:34:50 10° ESE visible
07 Aug 8.9 04:28:52 13° S 04:31:38 16° SSE 04:35:15 10° SE visible
08 Aug 9.3 03:32:26 13° SSE 03:32:26 13° SSE 03:35:06 10° SE visible
08 Aug 8.0 05:39:10 10° SW 05:45:17 28° SSE 05:49:30 10° ESE visible
09 Aug 8.5 04:41:44 18° SSW 04:45:39 25° SSE 04:50:22 10° ESE visible
